[[{"header":{"parameterUnit":"m.s-1","parameterCategory":2,"la1":30.2992,"la2":30.254,"lo1":-89.0895,"lo2":-89.0443,"dy":0.0025,"dx":0.0025,"nx":19,"ny":19,"refTime":"2026-03-29T21:00:00:Z","depth":"0","parameterNumber":2,"parameterNumberName":"U-component_of_CURRENTS"},"data":[0,0,0,-0.1855,-0.1856,-0.1889,-0.1889,-0.1859,-0.1859,0,0,0,0,0,0,0,0,0,0,0,-0.1837,-0.1837,-0.1855,-0.1856,-0.1889,-0.1889,-0.1859,-0.1859,0,0,0,0,0,0,0,0,0,0,0,-0.1837,-0.1837,-0.1838,-0.1856,-0.1889,-0.1889,-0.186,-0.185,0,0,0,0,0,0,0,0,0,0,-0.1826,-0.1814,-0.1837,-0.1838,-0.1857,-0.1889,-0.1889,-0.185,-0.185,-0.1828,0,-0.1839,0,-0.1855,-0.1857,-0.1856,0,0,0,-0.1845,-0.1814,-0.1836,-0.1838,-0.1857,-0.1889,-0.1871,-0.1851,-0.1851,-0.1828,-0.1839,-0.1838,-0.1854,-0.1856,-0.1856,-0.1916,-0.1917,0,0,-0.1843,-0.1827,-0.1836,-0.1836,-0.1872,-0.187,-0.1872,-0.1852,-0.1845,-0.1839,-0.1838,-0.1854,-0.1856,-0.1856,-0.1916,-0.1917,0,0,0,-0.1846,-0.1826,-0.1849,-0.1836,-0.1852,-0.1871,-0.1873,-0.1845,-0.1857,-0.1838,-0.1854,-0.1856,-0.1855,-0.1915,-0.1916,-0.1996,0,0,0,-0.1844,-0.1828,-0.1848,-0.1836,-0.1853,-0.1857,-0.1867,-0.1858,-0.1857,-0.1854,-0.1856,-0.1855,-0.1913,-0.1915,-0.1992,-0.2022,0,0,0,-0.1834,-0.1827,-0.1836,-0.1836,-0.1858,-0.1858,-0.1868,-0.1859,-0.1867,-0.1856,-0.1855,-0.1913,-0.1915,-0.1988,-0.2016,-0.206,0,0,0,-0.1809,-0.1843,-0.1835,-0.1886,-0.1858,-0.1936,-0.1869,-0.1898,-0.1898,-0.1856,-0.1914,-0.1916,-0.1987,-0.2012,-0.2056,-0.207,-0.2089,0,0,-0.1846,-0.1846,-0.1884,-0.188,-0.1967,-0.193,-0.201,-0.1966,-0.1923,-0.191,-0.1912,-0.1993,-0.2015,-0.2059,-0.2199,-0.2214,0,0,0,-0.1894,-0.1917,-0.1946,-0.199,-0.2034,-0.2066,-0.2042,-0.2034,-0.2024,-0.1936,-0.2017,-0.2028,-0.2053,-0.2054,-0.2067,-0.2081,-0.1926,-0.1926,-0.1926,-0.1892,-0.1946,-0.2014,-0.208,-0.2126,-0.2159,-0.2182,-0.2163,-0.2107,-0.2123,-0.2111,-0.2223,-0.2228,-0.2237,-0.2253,-0.2134,-0.2134,-0.2135,-0.2135,-0.1953,-0.1994,-0.2061,-0.2143,-0.2192,-0.2245,-0.229,-0.2267,-0.2288,-0.2222,-0.2242,-0.2161,-0.2256,-0.2268,-0.214,-0.2139,-0.2139,-0.2138,-0.2138,-0.1945,-0.1973,-0.2028,-0.2132,-0.2211,-0.2273,-0.2348,-0.2363,-0.2352,-0.238,-0.2352,-0.235,-0.2343,-0.2378,-0.2379,-0.2379,-0.2379,-0.2379,-0.238,-0.1898,-0.1963,-0.2004,-0.2119,-0.2167,-0.2257,-0.2369,-0.2415,-0.2458,-0.2446,-0.2445,-0.2399,-0.2297,-0.2267,-0.2385,-0.2384,-0.2384,-0.2383,-0.2383,-0.187,-0.1885,-0.1945,-0.1993,-0.2124,-0.2192,-0.2348,-0.2482,-0.2541,-0.2566,-0.2547,-0.2481,-0.2451,-0.244,-0.2414,-0.2563,-0.2563,-0.2563,-0.2563,-0.1807,-0.1838,-0.1868,-0.1924,-0.203,-0.215,-0.2269,-0.2426,-0.2564,-0.26,-0.2632,-0.2587,-0.2579,-0.2552,-0.2539,-0.2513,-0.2684,-0.2684,-0.2684,-0.1751,-0.1779,-0.1762,-0.1845,-0.1969,-0.208,-0.2161,-0.2351,-0.2582,-0.269,-0.2657,-0.2652,-0.2582,-0.2568,-0.2518,-0.2498,-0.2449,0,0]},{"header":{"parameterUnit":"m.s-1","parameterCategory":2,"la1":30.2992,"la2":30.254,"lo1":-89.0895,"lo2":-89.0443,"dy":0.0025,"dx":0.0025,"nx":19,"ny":19,"refTime":"2026-03-29T21:00:00:Z","depth":"0","parameterNumber":3,"parameterNumberName":"V-component_of_CURRENTS"},"data":[0,0,0,-0.0128,-0.0126,-0.0025,-0.0024,0.0096,0.0097,0,0,0,0,0,0,0,0,0,0,0,-0.0166,-0.0166,-0.0128,-0.0126,-0.0025,-0.0024,0.0096,0.0097,0,0,0,0,0,0,0,0,0,0,0,-0.0167,-0.0166,-0.0166,-0.0126,-0.0025,-0.0024,0.0095,0.0025,0,0,0,0,0,0,0,0,0,0,-0.0071,-0.0118,-0.0166,-0.0166,-0.0125,-0.0025,-0.0024,0.0022,0.0029,0.0042,0,0.0047,0,0.0069,0.0103,0.0103,0,0,0,-0.0111,-0.0124,-0.0092,-0.0166,-0.0125,-0.0025,-0.0066,0.0026,0.0035,0.0052,0.0048,0.0053,0.0071,0.0104,0.0104,0.019,0.019,0,0,-0.0116,-0.0148,-0.0098,-0.0087,-0.0113,-0.007,-0.0063,0.0032,0.0031,0.0049,0.0056,0.0073,0.0104,0.0105,0.0189,0.019,0,0,0,-0.0143,-0.0152,-0.0122,-0.0092,-0.0076,-0.0067,-0.006,0.0027,0.0038,0.0058,0.0074,0.0105,0.0106,0.0189,0.0189,0.0131,0,0,0,-0.0145,-0.0168,-0.0125,-0.0142,-0.0078,-0.0024,-0.0067,0.0031,0.0043,0.0074,0.0105,0.0107,0.0189,0.0189,0.0132,0.0078,0,0,0,-0.0168,-0.017,-0.0162,-0.0144,-0.0106,-0.0025,-0.0007,0.0035,0.0052,0.0103,0.0107,0.0189,0.0189,0.0133,0.0081,0.0103,0,0,0,-0.0198,-0.0216,-0.0164,-0.0171,-0.0107,-0.0055,-0.0008,0.0037,0.0075,0.0105,0.0189,0.0189,0.0133,0.0083,0.0104,0.0157,0.0156,0,0,-0.0241,-0.0222,-0.0224,-0.0175,-0.016,-0.0067,-0.003,0.0038,0.0091,0.0159,0.0162,0.0131,0.0082,0.0103,0.0187,0.0185,0,0,0,-0.025,-0.0261,-0.0244,-0.022,-0.0155,-0.0097,-0.0009,0.0041,0.0113,0.0115,0.0159,0.0129,0.0145,0.018,0.0179,0.045,0.0192,0.0192,0.0192,-0.0352,-0.0311,-0.0324,-0.0269,-0.0223,-0.0109,-0.0053,0.0036,0.0092,0.0121,0.0103,0.0103,0.0141,0.014,0.042,0.0143,0.0143,0.0143,0.0142,-0.0442,-0.0457,-0.0393,-0.0395,-0.0303,-0.0252,-0.0101,-0.0039,0.0053,0.0088,0.0108,0.0142,0.0135,0.0434,0.0139,0.014,0.014,0.014,0.0141,-0.0525,-0.0532,-0.052,-0.0512,-0.0466,-0.0349,-0.0289,-0.0161,-0.0026,-0.0005,0.0084,0.0086,0.0332,0.0023,0.0023,0.0023,0.0023,0.0023,0.0023,-0.0624,-0.0612,-0.0658,-0.0634,-0.063,-0.0574,-0.0398,-0.0304,-0.0109,0.0014,0.0016,0.0379,0.0067,0.0052,0.0021,0.0021,0.0021,0.0021,0.0022,-0.0739,-0.073,-0.0812,-0.0831,-0.0823,-0.0798,-0.0613,-0.0349,-0.0204,-0.0094,0.0407,0.0056,0.0084,0.0087,0.0075,0.0051,0.0051,0.0051,0.0051,-0.082,-0.0821,-0.0943,-0.1004,-0.1015,-0.0907,-0.075,-0.0397,0.0166,0.0486,0.0574,0.0655,0.0642,0.0708,0.0697,0.07,0.0835,0.0837,0.0838,-0.0899,-0.093,-0.1037,-0.109,-0.1105,-0.1017,-0.0834,-0.0358,0.0512,0.0898,0.0945,0.0912,0.1059,0.1015,0.1138,0.1101,0.1111,0,0]}],[{"header":{"parameterUnit":"m.s-1","parameterCategory":2,"la1":30.2992,"la2":30.254,"lo1":-89.0895,"lo2":-89.0443,"dy":0.0025,"dx":0.0025,"nx":19,"ny":19,"refTime":"2026-03-29T21:00:00:Z","depth":"2","parameterNumber":2,"parameterNumberName":"U-component_of_CURRENTS"},"data":[0,0,0,-0.1764,-0.1765,-0.1798,-0.1798,-0.1768,-0.1768,0,0,0,0,0,0,0,0,0,0,0,-0.1746,-0.1747,-0.1764,-0.1765,-0.1798,-0.1798,-0.1768,-0.1768,0,0,0,0,0,0,0,0,0,0,0,-0.1746,-0.1747,-0.1747,-0.1765,-0.1798,-0.1798,-0.1769,-0.1759,0,0,0,0,0,0,0,0,0,0,-0.1735,-0.1724,-0.1746,-0.1747,-0.1765,-0.1798,-0.1798,-0.1759,-0.1759,-0.1736,0,-0.1748,0,-0.1763,-0.1765,-0.1765,0,0,0,-0.1754,-0.1724,-0.1745,-0.1747,-0.1766,-0.1798,-0.178,-0.176,-0.176,-0.1736,-0.1748,-0.1747,-0.1763,-0.1765,-0.1765,-0.1823,-0.1824,0,0,-0.1752,-0.1737,-0.1745,-0.1745,-0.1781,-0.1779,-0.1781,-0.1761,-0.1755,-0.1747,-0.1747,-0.1762,-0.1765,-0.1765,-0.1822,-0.1823,0,0,0,-0.1754,-0.1736,-0.1758,-0.1745,-0.1761,-0.178,-0.1783,-0.1755,-0.1767,-0.1747,-0.1762,-0.1765,-0.1764,-0.1821,-0.1822,-0.1904,0,0,0,-0.1753,-0.1739,-0.1758,-0.1747,-0.1762,-0.1767,-0.1778,-0.1768,-0.1767,-0.1762,-0.1765,-0.1764,-0.182,-0.1822,-0.1899,-0.1929,0,0,0,-0.1744,-0.1737,-0.1746,-0.1746,-0.1768,-0.1768,-0.1777,-0.1768,-0.1776,-0.1765,-0.1764,-0.1819,-0.1821,-0.1895,-0.1923,-0.1967,0,0,0,-0.172,-0.1753,-0.1746,-0.1795,-0.1768,-0.1843,-0.1778,-0.1807,-0.1807,-0.1764,-0.182,-0.1822,-0.1894,-0.1919,-0.1963,-0.1959,-0.1977,0,0,-0.1756,-0.1756,-0.1793,-0.1789,-0.1873,-0.1837,-0.1915,-0.1872,-0.1831,-0.1817,-0.1819,-0.1901,-0.1922,-0.1966,-0.2086,-0.21,0,0,0,-0.1802,-0.1825,-0.1852,-0.1895,-0.1937,-0.1969,-0.1946,-0.1939,-0.193,-0.1843,-0.1923,-0.1934,-0.1959,-0.1949,-0.1961,-0.1833,-0.1832,-0.1832,-0.1832,-0.1803,-0.1854,-0.1919,-0.1982,-0.2027,-0.2059,-0.2082,-0.2065,-0.2011,-0.2027,-0.2017,-0.2128,-0.2122,-0.213,-0.2039,-0.2039,-0.2039,-0.204,-0.204,-0.1861,-0.1901,-0.1965,-0.2044,-0.2092,-0.2145,-0.2189,-0.2168,-0.219,-0.2126,-0.2146,-0.2057,-0.2147,-0.2047,-0.2045,-0.2045,-0.2044,-0.2043,-0.2043,-0.1855,-0.1881,-0.1935,-0.2035,-0.2114,-0.2175,-0.225,-0.2266,-0.2256,-0.2284,-0.2246,-0.2243,-0.2158,-0.2283,-0.2284,-0.2284,-0.2284,-0.2285,-0.2285,-0.181,-0.1872,-0.1913,-0.2025,-0.2072,-0.2163,-0.2273,-0.2318,-0.2354,-0.2337,-0.2337,-0.221,-0.2202,-0.2172,-0.229,-0.2289,-0.2289,-0.2288,-0.2288,-0.1782,-0.1799,-0.1857,-0.1905,-0.2033,-0.2076,-0.2247,-0.2372,-0.2432,-0.2451,-0.2369,-0.2365,-0.2333,-0.2322,-0.2296,-0.2439,-0.2439,-0.2439,-0.2439,-0.1722,-0.1752,-0.1783,-0.1837,-0.194,-0.2027,-0.2079,-0.2134,-0.2251,-0.2232,-0.2239,-0.2168,-0.2168,-0.2121,-0.2115,-0.2081,-0.2168,-0.2167,-0.2166,-0.1668,-0.1695,-0.1679,-0.176,-0.1879,-0.1936,-0.1877,-0.1781,-0.189,-0.2144,-0.2078,-0.2443,-0.2358,-0.2351,-0.229,-0.2276,-0.2226,0,0]},{"header":{"parameterUnit":"m.s-1","parameterCategory":2,"la1":30.2992,"la2":30.254,"lo1":-89.0895,"lo2":-89.0443,"dy":0.0025,"dx":0.0025,"nx":19,"ny":19,"refTime":"2026-03-29T21:00:00:Z","depth":"2","parameterNumber":3,"parameterNumberName":"V-component_of_CURRENTS"},"data":[0,0,0,-0.014,-0.0139,-0.0038,-0.0038,0.008,0.0081,0,0,0,0,0,0,0,0,0,0,0,-0.0178,-0.0178,-0.014,-0.0138,-0.0038,-0.0038,0.008,0.0081,0,0,0,0,0,0,0,0,0,0,0,-0.0178,-0.0178,-0.0177,-0.0138,-0.0039,-0.0038,0.008,0.001,0,0,0,0,0,0,0,0,0,0,-0.0084,-0.013,-0.0178,-0.0177,-0.0138,-0.0039,-0.0038,0.0007,0.0015,0.0027,0,0.0031,0,0.0054,0.0087,0.0088,0,0,0,-0.0123,-0.0136,-0.0105,-0.0177,-0.0137,-0.0039,-0.0079,0.0012,0.002,0.0037,0.0033,0.0038,0.0056,0.0088,0.0088,0.0172,0.0172,0,0,-0.0129,-0.016,-0.0111,-0.01,-0.0125,-0.0083,-0.0076,0.0017,0.0016,0.0034,0.0041,0.0057,0.0088,0.0089,0.0172,0.0172,0,0,0,-0.0155,-0.0164,-0.0134,-0.0105,-0.0089,-0.008,-0.0073,0.0012,0.0023,0.0042,0.0059,0.0089,0.009,0.0172,0.0172,0.0114,0,0,0,-0.0157,-0.018,-0.0137,-0.0154,-0.0091,-0.0038,-0.008,0.0017,0.0028,0.0058,0.0089,0.0091,0.0171,0.0172,0.0115,0.0062,0,0,0,-0.018,-0.0182,-0.0174,-0.0156,-0.0118,-0.0039,-0.0021,0.002,0.0037,0.0088,0.0091,0.0171,0.0172,0.0116,0.0065,0.0088,0,0,0,-0.0209,-0.0227,-0.0175,-0.0183,-0.012,-0.0069,-0.0022,0.0022,0.006,0.009,0.0171,0.0172,0.0116,0.0067,0.0089,0.0134,0.0132,0,0,-0.0252,-0.0233,-0.0235,-0.0187,-0.0173,-0.008,-0.0045,0.0022,0.0075,0.0142,0.0145,0.0114,0.0066,0.0088,0.0163,0.0161,0,0,0,-0.0261,-0.0273,-0.0256,-0.0233,-0.0169,-0.0111,-0.0025,0.0025,0.0096,0.0099,0.0142,0.0112,0.0129,0.0159,0.0157,0.0174,0.0174,0.0174,0.0174,-0.0363,-0.0323,-0.0336,-0.0282,-0.0237,-0.0125,-0.0069,0.002,0.0075,0.0104,0.0086,0.0087,0.0119,0.0118,0.0126,0.0126,0.0125,0.0125,0.0125,-0.0453,-0.0468,-0.0405,-0.0408,-0.0316,-0.0267,-0.0116,-0.0054,0.0037,0.0072,0.0092,0.0121,0.0113,0.0121,0.0122,0.0122,0.0123,0.0123,0.0123,-0.0535,-0.0542,-0.053,-0.0523,-0.0478,-0.0362,-0.0301,-0.0174,-0.0041,-0.0019,0.0064,0.0066,0.0042,0.0009,0.0009,0.0009,0.0009,0.0009,0.0009,-0.0632,-0.0621,-0.0667,-0.0643,-0.064,-0.0584,-0.0409,-0.0315,-0.0124,-0.0006,-0.0004,0.0048,0.0052,0.0038,0.0007,0.0007,0.0007,0.0007,0.0008,-0.0747,-0.0738,-0.0819,-0.0838,-0.0829,-0.0805,-0.0622,-0.0364,-0.022,-0.0114,0.0033,0.0034,0.0061,0.0064,0.0052,0.0026,0.0026,0.0026,0.0026,-0.0827,-0.0828,-0.0948,-0.1008,-0.1018,-0.0913,-0.0773,-0.0473,-0.0159,0.0002,0.0002,0.0028,0.0029,0.0056,0.0059,0.0047,0.002,0.002,0.0019,-0.0905,-0.0935,-0.1041,-0.1093,-0.1107,-0.1021,-0.0873,-0.053,-0.0104,0.0014,-0.0049,0.0035,0.0078,0.0077,0.0124,0.0127,0.0111,0,0]}],[{"header":{"parameterUnit":"m.s-1","parameterCategory":2,"la1":30.2992,"la2":30.254,"lo1":-89.0895,"lo2":-89.0443,"dy":0.0025,"dx":0.0025,"nx":19,"ny":19,"refTime":"2026-03-29T21:00:00:Z","depth":"4","parameterNumber":2,"parameterNumberName":"U-component_of_CURRENTS"},"data":[0,0,0,-0.1104,-0.1106,-0.1189,-0.119,-0.122,-0.122,0,0,0,0,0,0,0,0,0,0,0,-0.1081,-0.1082,-0.1104,-0.1106,-0.1189,-0.119,-0.122,-0.122,0,0,0,0,0,0,0,0,0,0,0,-0.1081,-0.1082,-0.1083,-0.1107,-0.1189,-0.119,-0.122,-0.1176,0,0,0,0,0,0,0,0,0,0,-0.1105,-0.1095,-0.1082,-0.1083,-0.1107,-0.1189,-0.119,-0.1175,-0.1179,-0.1161,0,-0.1184,0,-0.1199,-0.1221,-0.1221,0,0,0,-0.1106,-0.1092,-0.1113,-0.1083,-0.1108,-0.1189,-0.1152,-0.1178,-0.1182,-0.1166,-0.1184,-0.1186,-0.12,-0.1221,-0.1221,-0.1304,-0.1305,0,0,-0.1102,-0.1094,-0.1111,-0.1116,-0.114,-0.1149,-0.1154,-0.1182,-0.1189,-0.1185,-0.1187,-0.12,-0.1221,-0.1221,-0.1304,-0.1305,0,0,0,-0.1089,-0.1091,-0.1113,-0.1115,-0.1134,-0.1151,-0.1158,-0.1188,-0.1196,-0.1188,-0.12,-0.1221,-0.1221,-0.1303,-0.1304,-0.139,0,0,0,-0.1086,-0.1083,-0.1111,-0.1107,-0.1134,-0.1172,-0.1164,-0.1194,-0.1198,-0.12,-0.1221,-0.1221,-0.1302,-0.1303,-0.1385,-0.1414,0,0,0,-0.1076,-0.1082,-0.1095,-0.1106,-0.1142,-0.1173,-0.1183,-0.1196,-0.1205,-0.1221,-0.1221,-0.1301,-0.1303,-0.1381,-0.1407,-0.1455,0,0,0,-0.1059,-0.1089,-0.1095,-0.114,-0.1141,-0.1217,-0.1183,-0.1233,-0.1254,-0.1221,-0.1302,-0.1304,-0.138,-0.1403,-0.1451,-0.1257,0,0,0,-0.1084,-0.1091,-0.112,-0.1127,-0.1202,-0.1204,-0.1292,-0.1298,-0.1277,-0.1285,-0.1287,-0.1387,-0.1407,-0.1454,-0.1382,0,0,0,0,-0.112,-0.114,-0.1166,-0.1213,-0.1261,-0.1325,-0.1341,-0.1355,-0.1389,-0.1299,-0.1405,-0.1415,-0.1442,-0.1319,-0.1314,-0.1314,-0.1314,-0.1313,-0.1313,-0.1121,-0.1163,-0.1221,-0.1282,-0.134,-0.1412,-0.1464,-0.1487,-0.1454,-0.1492,-0.1499,-0.1612,-0.1487,-0.1519,-0.1519,-0.152,-0.152,-0.152,-0.1521,-0.115,-0.1177,-0.1259,-0.1332,-0.1415,-0.1494,-0.1582,-0.159,-0.1652,-0.1603,-0.1625,-0.1435,-0.1529,-0.1528,-0.1526,-0.1525,-0.1525,-0.1524,-0.1524,-0.1124,-0.1144,-0.1212,-0.1324,-0.1444,-0.1545,-0.1643,-0.1704,-0.1724,-0.1762,-0.1615,-0.1671,-0.1646,-0.1772,-0.1773,-0.1773,-0.1774,-0.1774,-0.1774,-0.1054,-0.1125,-0.1184,-0.1317,-0.1396,-0.1521,-0.1681,-0.1727,-0.178,-0.1691,-0.1784,-0.1696,-0.1688,-0.1661,-0.178,-0.1779,-0.1778,-0.1777,-0.1777,-0.099,-0.1032,-0.1102,-0.1179,-0.1353,-0.1434,-0.1623,-0.1683,-0.172,-0.1684,-0.1649,-0.1654,-0.16,-0.1595,-0.1561,-0.1655,-0.1653,-0.1651,0,-0.0922,-0.0957,-0.1024,-0.1109,-0.1211,-0.137,-0.1413,-0.1503,-0.155,-0.1494,-0.1687,-0.1644,-0.1646,-0.158,-0.1572,-0.153,0,0,0,-0.0863,-0.0897,-0.0908,-0.1017,-0.1132,-0.1252,-0.1412,-0.1397,-0.1548,-0.1545,-0.1599,-0.1613,-0.1721,-0.1797,-0.1726,-0.1716,-0.1668,0,0]},{"header":{"parameterUnit":"m.s-1","parameterCategory":2,"la1":30.2992,"la2":30.254,"lo1":-89.0895,"lo2":-89.0443,"dy":0.0025,"dx":0.0025,"nx":19,"ny":19,"refTime":"2026-03-29T21:00:00:Z","depth":"4","parameterNumber":3,"parameterNumberName":"V-component_of_CURRENTS"},"data":[0,0,0,-0.0125,-0.0124,-0.0054,-0.0054,0.0039,0.004,0,0,0,0,0,0,0,0,0,0,0,-0.015,-0.015,-0.0126,-0.0124,-0.0054,-0.0054,0.0039,0.004,0,0,0,0,0,0,0,0,0,0,0,-0.015,-0.015,-0.015,-0.0124,-0.0054,-0.0053,0.0039,-0.0011,0,0,0,0,0,0,0,0,0,0,-0.0079,-0.0114,-0.015,-0.015,-0.0124,-0.0054,-0.0053,-0.0014,-0.0008,0.0003,0,0.0004,0,0.0018,0.0045,0.0045,0,0,0,-0.0109,-0.0119,-0.0096,-0.015,-0.0123,-0.0054,-0.0082,-0.0011,-0.0004,0.001,0.0006,0.0009,0.0019,0.0045,0.0045,0.011,0.0111,0,0,-0.0113,-0.0137,-0.01,-0.0092,-0.0118,-0.0084,-0.008,-0.0007,-0.0008,0.0006,0.0012,0.0021,0.0046,0.0046,0.011,0.0111,0,0,0,-0.0135,-0.014,-0.0119,-0.0096,-0.0087,-0.0082,-0.0077,-0.0011,-0.0003,0.0013,0.0022,0.0046,0.0047,0.011,0.011,0.006,0,0,0,-0.0136,-0.0153,-0.0121,-0.0134,-0.0089,-0.0051,-0.0084,-0.0008,0.0,0.0022,0.0046,0.0048,0.011,0.011,0.0061,0.0019,0,0,0,-0.0151,-0.0155,-0.015,-0.0136,-0.0111,-0.0052,-0.0039,-0.0006,0.0005,0.0045,0.0048,0.011,0.011,0.0062,0.0021,0.0048,0,0,0,-0.0173,-0.0189,-0.0151,-0.0163,-0.0112,-0.0081,-0.0039,-0.001,0.0019,0.0046,0.011,0.011,0.0062,0.0023,0.0049,-0.0021,0,0,0,-0.0207,-0.0193,-0.0199,-0.0164,-0.0165,-0.0088,-0.0069,-0.0014,0.0032,0.0088,0.009,0.0061,0.0021,0.0048,0.0004,0,0,0,0,-0.0219,-0.0231,-0.0223,-0.0213,-0.0168,-0.0125,-0.0059,-0.0015,0.0046,0.005,0.0083,0.006,0.0078,0.0042,0.0112,0.0112,0.0112,0.0112,0.0112,-0.0297,-0.0273,-0.0293,-0.026,-0.023,-0.0145,-0.0099,-0.0022,0.0023,0.005,0.0036,0.0041,0.0001,0.0068,0.0068,0.0067,0.0067,0.0067,0.0067,-0.0369,-0.0383,-0.0349,-0.0363,-0.0298,-0.0264,-0.014,-0.0087,-0.0005,0.0023,0.0045,0.0011,0.0063,0.0063,0.0064,0.0065,0.0065,0.0065,0.0065,-0.0428,-0.0434,-0.044,-0.0451,-0.0427,-0.0341,-0.0289,-0.0183,-0.0068,-0.0047,-0.0042,0.002,0.0007,-0.0019,-0.0019,-0.002,-0.002,-0.002,-0.002,-0.0486,-0.0492,-0.0539,-0.0541,-0.055,-0.0512,-0.0373,-0.0297,-0.0163,-0.0113,-0.0056,0.0013,0.0015,0.0004,-0.0021,-0.0021,-0.002,-0.002,-0.002,-0.0557,-0.0561,-0.0636,-0.0667,-0.0684,-0.0645,-0.0525,-0.0349,-0.0267,-0.019,-0.0121,-0.0116,-0.0098,-0.0092,-0.0107,-0.0166,-0.0167,-0.0168,0,-0.0603,-0.0611,-0.0716,-0.0779,-0.0795,-0.0719,-0.0612,-0.0485,-0.0314,-0.0324,-0.0269,-0.0199,-0.0192,-0.018,-0.0176,-0.0198,0,0,0,-0.0648,-0.0675,-0.076,-0.0823,-0.0844,-0.0695,-0.0576,-0.0516,-0.0355,-0.0272,-0.0193,-0.0186,-0.013,-0.0024,0.0016,0.002,0.0004,0,0]}]]